Hourly Data Report for May 26, 2021

WIARTON A
ONTARIO
Current Station Operator: NAVCAN

44°44'39.000" N
81°06'31.000" W
221.90 m
6119499
71633
YVV

Download Data

Hourly Data (May 2021)
Hourly Data Report for May 26, 2021
TIME
LST
Temp Definition
°C
Dew Point Definition
°C
Rel Hum Definition
%
Precip. Amount Definition
mm

Wind Dir Definition
10's deg

Wind Spd Definition
km/h
Visibility Definition
km
Stn Press Definition
kPa
Hmdx Definition


Wind Chill Definition


Weather Definition


00:00 21.4 14.2 63   19 14 24.1 98.40 25   LegendNANA
01:00 22.5 14.2 59   21 17 24.1 98.36 26   Cloudy
02:00 23.8 14.1 54   22 28 24.1 98.27 27   LegendNANA
03:00 23.2 14.2 56   23 32 24.1 98.24 27   LegendNANA
04:00 19.0 14.9 77   25 32 16.1 98.30     Rain Showers
05:00 14.9 13.5 91   26 16 9.7 98.35     Rain Showers, Fog
06:00 13.8 13.3 97   22 16 3.2 98.40     Rain Showers, Fog
07:00 14.8 14.4 98   24 9 6.4 98.37     Rain, Fog
08:00 16.2 15.7 97   22 16 9.7 98.30     Rain, Fog
09:00 18.4 16.5 89   22 22 19.3 98.32     LegendNANA
10:00 19.6 14.9 74   22 29 24.1 98.30     Cloudy
11:00 19.5 14.8 74   24 30 24.1 98.36     LegendNANA
12:00 20.0 15.7 76   25 29 24.1 98.38     LegendNANA
13:00 18.4 15.3 82   25 28 24.1 98.42     Cloudy
14:00 16.6 14.3 86   27 23 19.3 98.48     LegendNANA
15:00 17.6 12.4 71   28 18 24.1 98.53     LegendNANA
16:00 16.2 9.8 66   29 19 24.1 98.61     Mainly Clear
17:00 14.1 7.4 64   30 21 24.1 98.68     LegendNANA
18:00 12.4 5.7 63   30 22 24.1 98.74     LegendNANA
19:00 11.8 4.5 61   30 25 24.1 98.79     Mainly Clear
20:00 10.0 2.9 61   29 24 24.1 98.88     LegendNANA
21:00 8.3 2.2 66   29 27 24.1 98.95     LegendNANA
22:00 7.6 2.8 71   29 14 24.1 99.05     Clear
23:00 7.5 3.2 74   29 14 24.1 99.11     LegendNANA

Notes on Data Quality.

Legend

  • E = Estimated
  • M = Missing
  • NA = Not Available*
  • [empty] = Indicates an unobserved value
Date modified: